Location: Johnson City
(36.3130°N, 82.3540°W)
Time: 20:07:30
(UTC-05:00)

N. Korean satellite - Visible Passes

Search period start: 30 November 2021 00:00
Search period end: 10 December 2021 00:00
Orbit: 447 x 495 km, 97.3° (Epoch: 30 November)

Date Brightness Start Highest point End Pass type
(mag) Time Alt. Az. Time Alt. Az. Time Alt. Az.
30 Nov 9.2 04:58:14 10° NE 05:00:40 18° E 05:03:04 10° SE visible
30 Nov 7.8 06:31:19 10° NNW 06:33:43 18° WNW 06:36:06 10° WSW visible
01 Dec 6.6 06:02:10 10° N 06:05:24 45° WNW 06:08:37 10° SSW visible
01 Dec 10.2 18:09:06 10° WSW 18:10:01 11° W 18:10:55 10° WNW visible
02 Dec 6.8 05:33:36 10° NNE 05:36:58 63° E 05:40:17 10° S visible
02 Dec 9.2 17:38:22 10° SSW 17:41:22 25° W 17:44:21 10° NW visible
03 Dec 8.8 05:05:38 10° NE 05:08:24 23° E 05:11:09 10° SSE visible
03 Dec 8.1 06:39:25 10° NW 06:41:22 15° WNW 06:43:18 10° WSW visible
04 Dec 7.0 06:09:56 10° N 06:13:02 34° WNW 06:16:07 10° SW visible
05 Dec 6.3 05:41:13 10° NNE 05:44:36 84° ESE 05:47:58 10° S visible
05 Dec 9.6 17:46:23 10° SW 17:49:03 20° W 17:51:41 10° NW visible
06 Dec 8.3 05:13:01 10° NE 05:16:01 30° E 05:19:02 10° SSE visible
06 Dec 8.3 06:47:39 10° NW 06:48:54 12° WNW 06:50:09 10° W visible
07 Dec 9.8 04:45:54 10° ENE 04:47:21 12° E 04:48:49 10° ESE visible
07 Dec 7.3 06:17:40 10° NNW 06:20:34 27° WNW 06:23:28 10° SW visible
08 Dec 6.2 05:48:45 10° N 05:52:08 74° WNW 05:55:30 10° SSW visible
08 Dec 9.7 17:54:26 10° SW 17:56:37 16° W 17:58:49 10° NW visible
09 Dec 7.8 05:20:23 10° NNE 05:23:34 38° E 05:26:46 10° S visible
